Temp
-19 -19 -19 -19 -19 -19 -20 -19 -19 -20 -20 -21 -21 -22 -22 -22 -22 -22 -22 -22 -22 -21 -21 -21 -21 -20 -20 -21 -20 -20 -20 -20 -20 -20 -20 -20 -20 -20 -19 -19 -18 -18 -18
-19 -19 -19 -19 -19 -19 -19 -19 -19 -20 -21 -21 -21 -21 -21 -22 -22 -22 -22 -22 -21 -21 -21 -21 -21 -20 -20 -20 -20 -20 -20 -20 -20 -20 -20 -20 -20 -19 -19 -19 -19 -19 -19
-19 -19 -19 -19 -19 -19 -19 -19 -19 -20 -20 -21 -21 -21 -21 -21 -22 -22 -22 -22 -21 -21 -21 -21 -20 -20 -20 -19 -19 -20 -20 -20 -20 -20 -19 -19 -19 -19 -19 -19 -19 -19 -18
-19 -19 -18 -19 -18 -18 -19 -19 -19 -19 -20 -20 -20 -20 -21 -21 -21 -22 -22 -21 -20 -20 -20 -20 -20 -19 -19 -19 -20 -20 -19 -19 -19 -19 -19 -19 -19 -18 -18 -18 -18 -18 -18
-18 -18 -18 -18 -18 -18 -19 -19 -19 -19 -20 -20 -20 -20 -20 -20 -20 -20 -20 -20 -20 -20 -20 -20 -19 -19 -19 -19 -19 -19 -19 -19 -19 -19 -19 -19 -19 -19 -19 -19 -18 -18 -18
-18 -18 -18 -18 -18 -19 -19 -19 -19 -19 -19 -19 -19 -19 -19 -19 -19 -19 -19 -19 -19 -19 -19 -19 -19 -19 -19 -19 -19 -19 -19 -19 -19 -19 -19 -18 -18 -18 -18 -18 -18 -18 -18
-18 -18 -18 -18 -18 -19 -18 -18 -19 -19 -19 -19 -19 -19 -19 -19 -19 -19 -19 -19 -19 -19 -19 -19 -19 -19 -19 -19 -18 -18 -18 -18 -18 -18 -18 -19 -19 -19 -18 -18 -18 -18 -18
-18 -18 -18 -18 -18 -18 -18 -18 -18 -18 -19 -19 -19 -19 -19 -19 -19 -19 -19 -19 -19 -19 -19 -18 -18 -18 -18 -18 -18 -18 -18 -18 -18 -18 -18 -18 -18 -18 -18 -18 -18 -18 -18
-18 -18 -18 -18 -18 -18 -18 -18 -18 -18 -18 -18 -18 -18 -18 -18 -18 -18 -18 -18 -18 -18 -18 -18 -18 -18 -17 -17 -17 -17 -17 -17 -17 -17 -17 -17 -18 -18 -18 -18 -18 -18 -18
-18 -18 -18 -18 -18 -18 -18 -18 -18 -18 -18 -18 -18 -18 -18 -18 -17 -17 -17 -17 -17 -17 -17 -17 -17 -17 -17 -17 -17 -17 -17 -17 -17 -17 -18 -17 -17 -18 -18 -18 -18 -18 -18
-18 -18 -18 -18 -18 -17 -18 -18 -17 -17 -17 -17 -17 -17 -17 -17 -17 -17 -17 -16 -17 -16 -17 -17 -17 -17 -17 -17 -17 -17 -17 -17 -17 -17 -18 -18 -18 -18 -18 -18 -18 -18 -18
-18 -17 -17 -17 -17 -17 -17 -17 -17 -17 -17 -17 -17 -17 -17 -17 -16 -16 -16 -16 -16 -16 -16 -17 -17 -17 -17 -17 -17 -17 -17 -17 -17 -18 -18 -18 -18 -18 -18 -18 -18 -18 -18
-17 -17 -17 -17 -17 -17 -17 -17 -16 -16 -16 -16 -16 -16 -16 -16 -16 -16 -16 -16 -16 -16 -16 -16 -17 -17 -17 -17 -17 -17 -17 -17 -17 -18 -18 -18 -18 -18 -18 -18 -18 -18 -18
-17 -17 -17 -17 -17 -16 -16 -16 -16 -16 -16 -16 -16 -16 -16 -16 -16 -16 -16 -16 -16 -16 -16 -16 -17 -17 -17 -17 -17 -17 -17 -17 -17 -18 -18 -18 -18 -18 -18 -18 -18 -18 -18
-17 -17 -17 -17 -16 -16 -16 -16 -16 -16 -16 -16 -16 -16 -16 -16 -16 -16 -16 -16 -16 -16 -16 -16 -16 -17 -17 -17 -17 -17 -17 -17 -18 -18 -18 -18 -18 -18 -18 -18 -18 -18 -18
-17 -16 -16 -16 -16 -16 -16 -16 -16 -16 -16 -16 -16 -16 -15 -16 -16 -16 -16 -16 -16 -16 -16 -16 -16 -16 -16 -17 -17 -17 -17 -17 -17 -18 -18 -18 -18 -18 -18 -18 -19 -19 -18
-17 -16 -16 -16 -16 -16 -16 -15 -16 -16 -15 -15 -15 -15 -16 -16 -16 -16 -16 -16 -16 -16 -16 -16 -16 -16 -16 -16 -17 -17 -17 -17 -17 -17 -18 -18 -18 -18 -18 -18 -18 -18 -18
-16 -16 -16 -16 -15 -15 -15 -15 -15 -15 -15 -15 -15 -16 -16 -15 -15 -16 -16 -16 -15 -15 -16 -16 -16 -16 -16 -16 -17 -17 -17 -17 -17 -17 -18 -18 -18 -18 -18 -18 -18 -18 -18
-16 -16 -16 -16 -15 -15 -15 -15 -15 -15 -15 -15 -15 -15 -15 -15 -16 -16 -16 -16 -15 -15 -16 -16 -16 -16 -16 -16 -16 -17 -17 -17 -17 -17 -18 -18 -18 -18 -18 -18 -18 -18 -18
-16 -16 -16 -16 -15 -15 -15 -15 -15 -16 -15 -15 -15 -15 -15 -16 -16 -16 -16 -15 -15 -15 -16 -16 -16 -16 -16 -16 -16 -16 -17 -17 -17 -17 -17 -18 -18 -18 -18 -18 -19 -18 -18
-16 -16 -16 -15 -15 -15 -15 -15 -15 -16 -15 -15 -15 -15 -15 -16 -16 -16 -16 -16 -16 -16 -16 -16 -16 -16 -16 -16 -16 -16 -16 -17 -17 -17 -17 -17 -18 -18 -18 -18 -19 -18 -18
-16 -16 -16 -16 -16 -15 -15 -15 -15 -15 -15 -15 -15 -15 -15 -16 -16 -16 -16 -16 -16 -16 -16 -16 -16 -16 -16 -16 -16 -16 -16 -17 -17 -17 -17 -17 -17 -18 -18 -18 -19 -19 -18
-16 -16 -16 -16 -16 -16 -15 -15 -15 -15 -15 -15 -15 -15 -15 -15 -16 -16 -16 -16 -16 -16 -16 -16 -16 -16 -16 -16 -16 -16 -16 -17 -17 -17 -17 -17 -17 -18 -18 -18 -19 -19 -18
-16 -16 -16 -16 -16 -16 -16 -15 -16 -16 -15 -15 -15 -16 -16 -16 -16 -16 -16 -16 -16 -16 -16 -16 -16 -16 -16 -16 -16 -16 -16 -16 -17 -17 -17 -17 -17 -18 -18 -18 -18 -19 -19
-17 -16 -16 -16 -16 -16 -16 -16 -16 -16 -16 -16 -16 -16 -16 -16 -16 -16 -16 -16 -16 -16 -16 -16 -16 -16 -16 -16 -16 -16 -16 -16 -17 -17 -17 -17 -18 -18 -18 -18 -19 -19 -19
-17 -17 -17 -16 -16 -16 -16 -16 -16 -16 -16 -16 -16 -16 -16 -16 -16 -16 -16 -16 -16 -16 -16 -16 -16 -16 -16 -16 -16 -16 -16 -16 -17 -17 -17 -17 -18 -18 -18 -18 -19 -19 -19
Height
5701 5693 5685 5676 5669 5662 5657 5653 5650 5647 5644 5643 5642 5642 5642 5642 5643 5643 5644 5646 5650 5653 5656 5659 5661 5662 5663 5660 5657 5654 5651 5649 5647 5644 5643 5641 5640 5639 5638 5638 5639 5641 5642
5697 5689 5680 5671 5666 5661 5656 5652 5649 5646 5644 5642 5641 5640 5640 5641 5642 5643 5644 5646 5649 5652 5655 5658 5661 5662 5661 5658 5656 5654 5653 5651 5648 5646 5644 5642 5640 5639 5638 5638 5638 5639 5639
5695 5688 5680 5673 5667 5663 5658 5655 5651 5648 5646 5644 5642 5641 5641 5641 5642 5643 5645 5646 5649 5653 5656 5659 5661 5660 5659 5658 5657 5655 5654 5652 5649 5647 5644 5643 5641 5639 5638 5637 5637 5637 5636
5697 5691 5685 5679 5673 5668 5663 5659 5655 5652 5649 5647 5646 5645 5644 5644 5645 5646 5647 5649 5651 5655 5658 5660 5660 5660 5660 5659 5659 5657 5655 5652 5649 5647 5645 5643 5641 5639 5638 5637 5636 5634 5633
5704 5697 5691 5686 5681 5675 5671 5666 5662 5659 5656 5654 5652 5651 5650 5649 5649 5650 5651 5653 5655 5657 5660 5661 5661 5662 5662 5661 5660 5658 5656 5654 5651 5649 5647 5644 5642 5641 5639 5638 5636 5635 5634
5710 5705 5699 5694 5689 5683 5679 5675 5671 5668 5665 5662 5660 5658 5657 5656 5656 5657 5657 5659 5660 5662 5663 5664 5665 5665 5664 5664 5663 5661 5658 5656 5654 5652 5649 5647 5646 5644 5642 5640 5638 5637 5635
5715 5710 5705 5700 5696 5691 5687 5683 5680 5677 5674 5671 5669 5667 5666 5665 5665 5665 5665 5666 5667 5668 5668 5669 5669 5669 5668 5667 5666 5664 5662 5661 5659 5656 5654 5652 5650 5649 5646 5645 5643 5641 5638
5719 5714 5710 5706 5703 5699 5695 5691 5688 5685 5682 5680 5678 5676 5675 5673 5673 5673 5673 5673 5674 5674 5674 5675 5674 5674 5673 5671 5671 5669 5667 5666 5664 5662 5660 5658 5657 5654 5652 5650 5648 5645 5643
5723 5719 5715 5712 5709 5705 5702 5699 5696 5693 5690 5688 5686 5685 5684 5683 5682 5682 5682 5682 5681 5681 5681 5681 5680 5680 5679 5678 5678 5675 5674 5671 5670 5668 5666 5664 5662 5660 5657 5654 5652 5649 5646
5728 5724 5721 5717 5715 5711 5709 5706 5704 5701 5698 5696 5695 5693 5692 5691 5691 5690 5690 5690 5689 5689 5688 5688 5688 5687 5686 5685 5684 5682 5680 5679 5676 5673 5671 5668 5665 5662 5660 5656 5653 5650 5647
5732 5729 5726 5723 5721 5718 5716 5714 5711 5709 5707 5705 5703 5702 5700 5701 5700 5700 5699 5699 5698 5697 5697 5696 5695 5694 5693 5692 5689 5687 5685 5683 5680 5677 5674 5671 5668 5666 5662 5658 5654 5651 5648
5735 5733 5731 5728 5727 5725 5722 5721 5718 5717 5715 5714 5712 5712 5711 5710 5710 5709 5708 5707 5706 5706 5704 5703 5702 5701 5699 5697 5695 5693 5690 5688 5684 5681 5678 5675 5671 5668 5664 5660 5656 5652 5648
5739 5737 5736 5734 5732 5729 5729 5727 5726 5725 5724 5723 5722 5720 5719 5719 5719 5718 5717 5715 5713 5713 5711 5710 5709 5707 5705 5703 5700 5698 5695 5693 5689 5685 5681 5678 5674 5670 5666 5662 5658 5654 5649
5743 5741 5740 5738 5737 5736 5735 5734 5733 5733 5732 5731 5730 5729 5728 5727 5726 5725 5725 5723 5722 5720 5718 5717 5714 5713 5711 5708 5706 5704 5700 5696 5693 5689 5685 5680 5676 5672 5667 5663 5658 5653 5648
5747 5745 5744 5743 5742 5742 5741 5741 5740 5740 5739 5738 5737 5736 5735 5735 5734 5733 5731 5730 5728 5727 5726 5724 5721 5719 5717 5714 5712 5708 5705 5701 5697 5692 5688 5683 5678 5673 5668 5663 5658 5651 5645
5750 5749 5748 5747 5747 5747 5747 5747 5746 5746 5746 5745 5744 5743 5742 5741 5740 5740 5739 5737 5736 5734 5733 5730 5727 5725 5722 5719 5716 5712 5708 5703 5699 5694 5689 5684 5680 5675 5669 5663 5656 5650 5642
5752 5752 5752 5752 5751 5752 5752 5752 5752 5752 5751 5751 5750 5749 5748 5747 5746 5746 5745 5744 5742 5740 5738 5735 5732 5730 5726 5723 5719 5714 5710 5706 5701 5696 5691 5686 5681 5675 5669 5663 5655 5648 5641
5756 5755 5755 5756 5755 5755 5756 5756 5756 5756 5756 5755 5754 5754 5753 5753 5752 5752 5750 5748 5747 5745 5742 5739 5737 5733 5730 5726 5722 5717 5713 5708 5703 5698 5693 5687 5682 5676 5669 5662 5655 5647 5640
5757 5758 5758 5759 5759 5759 5759 5759 5760 5759 5759 5759 5759 5759 5758 5758 5757 5756 5754 5753 5751 5749 5746 5743 5740 5736 5732 5728 5724 5720 5715 5711 5705 5700 5694 5688 5682 5675 5669 5661 5654 5647 5640
5760 5760 5760 5761 5762 5762 5762 5762 5763 5763 5762 5763 5763 5763 5763 5762 5761 5760 5758 5756 5754 5752 5749 5746 5743 5739 5735 5731 5726 5722 5717 5712 5706 5701 5695 5688 5682 5675 5668 5661 5653 5645 5639
5761 5762 5763 5763 5764 5764 5765 5765 5765 5765 5765 5766 5766 5766 5766 5765 5764 5763 5761 5758 5756 5754 5751 5748 5744 5741 5737 5733 5728 5723 5718 5712 5706 5700 5694 5688 5681 5674 5667 5659 5651 5643 5636
5763 5763 5763 5764 5765 5766 5766 5767 5767 5767 5768 5768 5768 5768 5768 5767 5766 5765 5763 5760 5758 5755 5753 5749 5746 5742 5738 5733 5729 5723 5718 5712 5706 5699 5693 5687 5680 5672 5665 5657 5649 5642 5635
5763 5763 5764 5764 5765 5766 5767 5768 5768 5769 5769 5770 5770 5769 5769 5768 5766 5765 5763 5761 5759 5756 5753 5750 5746 5742 5738 5733 5728 5723 5717 5711 5704 5698 5692 5685 5678 5671 5663 5655 5647 5639 5633
5761 5763 5764 5764 5765 5766 5767 5768 5769 5768 5769 5769 5769 5769 5768 5767 5766 5764 5763 5760 5758 5755 5752 5749 5745 5741 5737 5732 5727 5721 5716 5709 5703 5696 5690 5683 5676 5668 5660 5652 5644 5637 5630
5759 5760 5762 5763 5764 5765 5766 5766 5767 5768 5768 5768 5768 5768 5767 5766 5764 5763 5761 5759 5756 5754 5751 5747 5743 5739 5735 5730 5725 5719 5713 5707 5700 5694 5688 5681 5673 5666 5657 5649 5642 5635 5628
5756 5757 5758 5760 5762 5763 5764 5765 5765 5765 5766 5766 5766 5765 5765 5764 5762 5761 5759 5757 5754 5751 5748 5745 5741 5737 5732 5727 5722 5716 5710 5704 5697 5691 5685 5678 5670 5662 5654 5646 5639 5632 5625
Wind_Speed
30 35 39 39 31 25 19 16 15 14 13 11 7 7 10 14 14 7 5 4 6 10 10 6 12 11 16 23 12 11 6 3 7 7 5 2 1 2 2 3 6 9 12
33 35 31 24 20 18 16 14 13 11 8 7 4 3 2 1 2 2 2 2 7 11 11 8 11 12 20 9 5 3 7 2 2 4 4 4 3 2 2 1 2 3 7
28 26 23 20 18 17 15 14 13 14 13 10 8 5 4 4 4 2 2 2 10 10 7 7 9 11 4 1 6 6 3 6 8 7 8 9 8 7 6 5 5 6 6
23 22 22 23 23 23 22 19 18 16 15 14 13 12 11 9 7 5 4 6 10 10 7 6 3 3 6 9 6 5 7 8 8 9 9 9 9 8 6 5 5 8 9
26 25 25 25 26 27 28 29 29 25 23 22 21 20 19 19 18 16 15 15 13 11 12 9 10 12 11 6 7 9 9 9 11 12 13 14 14 14 13 12 10 9 10
25 27 28 27 28 29 30 31 32 33 33 31 28 27 26 26 26 25 24 23 21 19 19 17 13 11 11 12 13 12 13 14 14 16 19 19 18 17 17 17 15 14 13
20 21 23 24 26 27 28 28 28 28 28 29 30 30 31 31 30 30 28 25 22 20 19 19 19 18 17 16 17 18 19 19 20 20 21 20 20 19 18 17 16 15 16
19 19 20 23 25 25 26 26 26 28 29 27 27 27 27 26 26 25 26 26 25 24 24 23 22 21 21 22 21 21 21 23 24 23 23 23 22 21 20 19 18 17 16
19 20 21 22 22 23 23 24 25 26 26 27 29 30 30 29 29 28 27 27 27 27 26 25 26 25 24 25 22 24 23 23 22 21 20 20 19 18 17 17 16 15 15
19 20 20 21 20 21 24 26 26 28 29 28 28 29 29 29 29 30 29 29 31 30 30 29 28 27 27 25 23 23 22 21 20 20 19 19 19 18 17 16 16 17 17
17 18 18 19 21 23 24 23 22 23 25 27 28 28 31 29 30 32 31 32 31 32 31 29 27 26 25 24 23 22 21 21 20 20 19 19 18 17 17 17 19 18 18
14 14 15 18 19 19 19 20 23 26 28 29 30 30 31 32 32 32 33 32 31 29 28 27 26 25 25 24 24 23 22 21 21 21 20 18 18 18 18 19 19 19 19
12 14 17 16 16 19 21 22 24 26 28 30 31 32 32 31 31 30 29 30 29 28 28 27 27 26 26 26 25 25 24 24 25 23 23 22 22 21 20 21 21 20 20
12 13 13 15 17 19 22 23 24 26 27 28 29 29 29 29 28 27 28 28 28 29 30 30 31 31 31 31 30 29 30 30 31 31 29 26 25 25 24 24 24 25 27
9 11 12 14 17 19 21 23 24 24 24 25 26 26 26 26 26 26 27 28 31 32 33 33 32 30 29 28 27 27 27 28 28 27 30 31 31 29 28 29 30 32 33
7 11 12 15 16 19 21 22 22 21 22 22 23 23 24 23 24 25 28 31 31 30 27 27 27 28 28 28 28 28 28 29 30 29 28 29 31 31 32 34 35 35 35
5 11 13 15 17 19 20 20 19 19 19 19 20 21 21 22 23 25 25 25 24 23 24 25 26 27 27 29 30 30 30 29 30 31 30 30 31 32 35 38 38 37 37
6 12 14 15 17 19 18 17 16 17 17 17 17 18 19 22 22 20 19 19 20 21 22 23 24 26 28 30 31 31 31 30 30 30 30 31 33 34 37 40 41 38 36
9 12 14 15 16 17 16 15 15 15 15 15 16 18 21 19 15 15 15 16 16 17 18 21 23 26 29 32 33 32 31 30 30 32 32 33 34 37 39 41 42 38 36
9 11 13 16 15 15 15 14 13 13 14 15 17 17 14 11 11 10 11 12 13 14 16 19 22 25 28 30 33 34 33 32 32 33 34 35 37 39 41 43 44 40 36
9 9 13 16 16 15 13 12 12 13 15 16 15 12 9 7 6 6 7 8 9 12 15 17 21 24 26 29 32 34 35 33 34 35 36 37 39 41 43 44 44 39 36
9 10 14 16 15 14 13 12 12 14 15 14 10 7 4 2 2 3 4 7 9 11 14 17 20 23 26 29 32 34 37 36 35 36 38 39 41 41 43 45 43 37 36
10 11 14 16 17 15 14 13 14 15 13 10 6 2 0 2 3 4 5 7 9 12 14 17 20 23 26 30 32 35 38 39 36 37 39 40 42 43 45 45 41 36 36
11 11 13 16 17 17 16 15 14 15 13 9 6 4 2 3 5 6 8 9 11 13 16 19 22 24 27 30 33 36 39 41 39 37 39 41 43 45 46 44 38 38 38
14 13 14 16 17 19 19 18 17 15 13 11 9 7 6 6 7 9 11 12 14 15 18 21 23 26 28 32 34 37 39 42 40 38 39 42 44 46 47 42 38 39 37
16 17 16 17 17 18 19 19 19 18 17 16 14 12 11 12 13 14 15 16 17 19 21 23 25 27 30 33 35 38 40 42 41 39 40 43 44 47 47 41 39 38 37
Wind_Direction
325 325 321 320 322 328 326 323 321 318 317 312 303 277 270 260 253 263 236 217 210 200 187 233 236 253 296 310 304 308 332 49 50 33 21 1 286 277 271 257 250 252 256
334 330 335 344 351 352 354 356 0 7 15 26 16 332 320 306 191 169 193 208 187 182 205 251 230 273 302 298 308 91 99 74 18 342 5 1 357 1 358 319 308 326 305
345 355 8 17 20 17 19 21 22 32 34 31 29 36 72 114 124 148 220 202 172 174 182 211 272 285 271 182 134 133 100 66 20 29 47 39 35 28 25 7 339 331 339
15 27 37 45 49 52 55 56 55 54 54 58 62 66 71 82 96 111 112 124 157 181 213 257 193 160 136 137 140 95 52 19 47 44 37 27 29 28 11 341 331 348 348
43 46 50 57 63 66 67 66 64 65 70 73 76 80 84 89 94 99 102 107 114 128 127 127 123 120 123 109 96 70 60 44 38 45 41 46 40 39 42 47 47 41 26
45 48 50 53 58 61 64 66 69 70 71 75 78 81 83 86 89 92 94 98 102 106 107 106 104 97 94 86 76 60 57 55 51 53 55 53 51 50 48 47 45 42 39
38 39 45 48 55 59 60 60 61 64 68 71 77 79 81 84 87 89 91 93 94 93 92 94 93 90 87 79 73 66 65 62 62 60 58 55 55 54 54 53 49 46 45
37 46 49 55 61 61 63 64 63 66 68 71 74 76 79 82 84 87 90 91 91 89 88 88 87 84 82 80 76 76 72 68 65 62 58 54 53 51 49 47 44 43 38
44 52 55 59 60 60 60 59 64 67 71 75 78 80 83 85 86 86 85 86 87 87 86 85 85 84 82 80 79 76 71 68 64 61 59 57 51 46 45 39 32 29 24
56 55 56 56 55 59 63 70 70 73 75 78 80 83 83 84 85 87 85 87 89 90 89 87 86 83 80 75 70 67 62 58 53 53 46 44 41 35 28 24 25 16 11
54 59 61 63 66 71 71 72 72 74 79 83 85 87 89 89 91 92 93 94 90 88 84 82 80 77 74 70 67 63 57 52 49 45 43 38 36 29 25 20 18 11 7
55 66 66 72 76 68 70 78 83 86 88 89 91 92 94 94 93 92 92 88 87 85 83 81 76 72 69 65 60 56 51 46 43 40 36 32 30 26 23 21 17 13 9
69 73 78 74 68 77 82 86 88 92 94 95 94 93 92 91 91 89 88 88 86 82 79 77 73 70 65 62 60 56 52 49 45 42 39 33 30 25 25 23 21 17 12
79 75 62 72 82 87 95 99 99 97 95 94 94 93 93 93 92 90 86 83 81 79 76 73 72 70 66 63 61 57 51 46 43 41 39 35 30 27 23 19 14 9 3
66 67 84 94 97 101 106 104 101 99 98 97 97 96 95 93 90 87 84 83 83 81 78 74 70 66 60 54 47 43 39 36 34 32 32 29 26 23 18 12 5 359 355
59 87 101 103 108 113 111 108 106 105 102 102 102 100 97 94 91 89 90 88 85 81 76 67 59 53 49 45 40 36 34 32 29 26 24 22 21 19 15 7 3 1 359
74 105 111 120 123 119 116 113 113 110 107 106 103 100 98 96 95 95 93 88 80 71 62 57 54 49 43 39 34 31 29 27 25 22 20 17 14 13 10 7 4 1 0
115 125 126 133 130 125 121 120 118 113 111 108 104 101 100 102 102 96 88 77 70 63 58 52 46 41 36 33 29 26 24 22 20 16 14 12 11 9 6 5 3 360 359
135 136 141 139 137 132 131 128 121 117 115 111 110 109 111 109 97 86 77 71 65 57 48 43 38 33 29 26 24 22 20 17 14 12 10 7 6 5 3 1 1 359 358
149 150 152 147 147 142 138 131 129 128 122 121 119 118 114 99 90 83 75 66 55 43 35 31 29 26 23 20 18 16 14 12 9 6 4 3 2 0 359 357 358 357 357
166 165 170 159 156 151 146 146 143 136 133 132 129 124 111 97 87 78 70 57 41 27 22 20 18 17 15 13 12 11 9 6 3 1 0 358 356 354 353 353 355 356 356
189 184 182 172 167 162 160 159 155 150 146 143 140 132 120 95 47 23 23 19 12 7 6 7 7 6 5 5 5 5 4 1 358 357 356 356 355 353 352 352 354 354 354
202 200 194 186 179 175 172 173 167 161 157 158 163 160 303 321 319 323 331 335 342 347 350 354 356 356 357 357 358 359 359 358 355 353 352 352 353 352 351 351 352 353 352
202 212 209 201 192 188 185 185 187 179 180 192 198 206 254 315 315 308 308 315 324 331 337 342 345 348 349 350 352 353 355 354 352 350 350 350 351 351 351 350 352 351 350
217 209 217 214 211 203 200 200 200 208 210 209 216 235 259 284 302 313 315 313 316 321 327 333 337 340 342 344 347 348 349 350 348 347 347 347 349 350 350 349 349 350 350
220 217 211 217 220 221 220 218 217 217 219 223 231 244 260 275 287 296 304 312 314 317 321 325 330 334 337 339 341 343 344 346 344 343 343 344 347 347 348 346 347 348 348